Skip Page Navigation
NASA JPL Caltech
NASA Logo - Jet Propulsion Laboratory + View the NASA Portal
+ Near-Earth Object (NEO) Program
Search JPL
JPL Home Earth Solar System Stars & Galaxies Technology
JPL Solar System Dynamics
BODIES ORBITS EPHEMERIDES TOOLS PHYSICAL DATA DISCOVERY FAQ SITE MAP
JPL Small-Body Database Browser
Search: [ help ]  
79146 (1992 JP3)
Classification: Main-belt Asteroid          SPK-ID: 2079146
Ephemeris | Orbit Diagram | Orbital Elements | Physical Parameters | Discovery Circumstances ]

[ show orbit diagram ]
Orbital Elements at Epoch 2457400.5 (2016-Jan-13.0) TDB
Reference: JPL 9 (heliocentric ecliptic J2000)
 Element Value Uncertainty (1-sigma)   Units 
e .172552027380069 1.0461e-07  
a 2.534777674379823 1.8069e-08 au
q 2.097396647707848 2.7147e-07 au
i 7.981680985980816 1.1403e-05 deg
node 42.06014875285852 4.694e-05 deg
peri 198.6355804362209 5.9661e-05 deg
M 306.5923919706054 3.7077e-05 deg
tp 2457619.179898536079
(2016-Aug-18.67989854)
0.00015325 JED
period 1474.036497378044
4.04
1.5761e-05
4.315e-08
d
yr
n .2442273313044509 2.6114e-09 deg/d
Q 2.972158701051798 2.1186e-08 au
  Orbit Determination Parameters
   # obs. used (total)      576  
   data-arc span      8303 days (22.73 yr)  
   first obs. used      1992-05-02  
   last obs. used      2015-01-25  
   planetary ephem.      DE431  
   SB-pert. ephem.      SB431-BIG16  
   condition code      0  
   fit RMS      .55833  
   data source      ORB  
   producer      Otto Matic  
   solution date      2015-Mar-09 17:43:42  

Additional Information
 Earth MOID = 1.08612 au 
 Jupiter MOID = 2.03895 au 
 T_jup = 3.414 
[ show covariance matrix ]

Ephemeris | Orbit Diagram | Orbital Elements | Physical Parameters | Discovery Circumstances ]

Physical Parameter Table
Parameter Symbol Value Units Sigma Reference Notes
absolute magnitude H 15.3 mag n/a MPO272999  

79146 (1992 JP3)          Discovered 1992-May-02 by Debehogne, H. at La Silla
Reference: 20040504/Numbers.arcLast Updated: 2004-07-16

Alternate Designations
 1992 JP3 = 1996 HV18 
Ephemeris | Orbit Diagram | Orbital Elements | Physical Parameters | Discovery Circumstances ]
ABOUT SSD CREDITS/AWARDS PRIVACY/COPYRIGHT GLOSSARY LINKS
FirstGov 2016-Feb-14 01:44 UT
(server date/time)  
NASA Home Page
Site Manager:   Ryan S. Park
Webmaster  Alan B. Chamberlin